EW5795 Weather Reports


time (UTC)temp
C
wind
direction
speed
KPH
gust
KPH
rain 1hr
cm
rain 24hr
cm
rain mn
cm
humidity
%
barometer
mb
20260507013029 5 16 0.0 1.6 0.00 0.00 0.00 85 1012.8
20260507011529 5 16 0.0 3.2 0.00 0.00 0.00 85 1012.9
20260507010029 6 21 0.0 4.8 0.00 0.00 0.00 84 1012.8
20260507004524 6 28 0.0 3.2 0.00 0.00 0.00 84 1012.8
20260507003022 6 28 0.0 3.2 0.00 0.00 0.00 83 1012.8
20260507001525 7 55 0.0 4.8 0.00 0.00 0.00 83 1012.8
20260507000119 7 61 0.0 4.8 0.00 0.00 0.00 83 1012.8
20260506234517 7 66 1.6 11.3 0.00 0.00 0.00 83 1012.9
20260506233017 7 76 3.2 9.7 0.00 0.00 0.00 83 1012.9
20260506231514 7 65 1.6 8.0 0.00 0.00 0.00 83 1012.8
20260506230013 7 78 3.2 8.0 0.00 0.00 0.00 83 1012.8
20260506224510 7 84 3.2 8.0 0.00 0.00 0.00 83 1012.7
20260506223008 7 83 3.2 9.7 0.00 0.00 0.00 83 1012.6
20260506221507 7 96 3.2 12.9 0.00 0.00 0.00 82 1012.6
20260506220014 8 61 4.8 11.3 0.00 0.00 0.00 82 1012.5
20260506214502 8 87 6.4 14.5 0.00 0.00 0.00 82 1012.4
20260506213122 8 100 3.2 16.1 0.00 0.00 0.00 82 1012.3
20260506211557 8 90 6.4 16.1 0.00 0.00 0.00 82 1012.2
20260506210057 8 87 3.2 17.7 0.00 0.00 0.00 81 1012.1
20260506204555 9 54 3.2 16.1 0.00 0.00 0.00 81 1012.1
20260506203053 9 67 4.8 16.1 0.00 0.00 0.00 80 1011.9
20260506201552 10 54 4.8 16.1 0.00 0.00 0.00 79 1011.8
20260506200050 10 51 3.2 14.5 0.00 0.00 0.00 78 1011.7
20260506194550 10 336 1.6 8.0 0.00 0.00 0.00 78 1011.4
20260506193048 10 84 3.2 11.3 0.00 0.00 0.00 76 1011.3
20260506191545 10 53 1.6 8.0 0.00 0.00 0.00 75 1011.1
20260506190043 11 3 3.2 17.7 0.00 0.00 0.00 73 1010.9
20260506184542 11 27 3.2 17.7 0.00 0.00 0.00 71 1010.7
20260506183041 12 309 4.8 19.3 0.00 0.00 0.00 70 1010.6
20260506181539 12 110 3.2 17.7 0.00 0.00 0.00 67 1010.5
20260506180046 13 47 4.8 22.5 0.00 0.00 0.00 64 1010.3
20260506174541 12 312 1.6 17.7 0.00 0.00 0.00 66 1010.1
20260506173038 12 68 8.0 20.9 0.00 0.00 0.00 65 1009.9
20260506171537 12 77 6.4 17.7 0.00 0.00 0.00 65 1009.9
20260506170034 13 52 4.8 20.9 0.00 0.00 0.00 65 1009.8
20260506164534 13 96 8.0 25.7 0.00 0.00 0.00 65 1009.8
20260506163055 13 54 11.3 25.7 0.00 0.00 0.00 64 1009.6
20260506161534 14 51 4.8 24.1 0.00 0.00 0.00 66 1009.6
20260506160033 15 46 8.0 20.9 0.00 0.00 0.00 63 1009.7
20260506154531 15 38 8.0 19.3 0.00 0.00 0.00 63 1009.5
20260506153031 15 83 4.8 17.7 0.00 0.00 0.00 64 1009.5
20260506151530 16 136 6.4 20.9 0.00 0.00 0.00 63 1009.4
20260506150029 15 33 9.7 30.6 0.00 0.00 0.00 64 1009.4
20260506144528 16 153 8.0 22.5 0.00 0.00 0.00 66 1009.4
20260506143035 14 30 8.0 25.7 0.00 0.00 0.00 68 1009.3
20260506141529 14 88 6.4 30.6 0.00 0.00 0.00 67 1009.3
20260506140027 14 243 3.2 19.3 0.00 0.00 0.00 65 1009.2
20260506134526 15 172 6.4 22.5 0.00 0.00 0.00 63 1009.2
20260506133026 15 157 8.0 22.5 0.00 0.00 0.00 64 1009.1
20260506131524 15 24 6.4 17.7 0.00 0.00 0.00 68 1009.0
20260506130024 14 92 4.8 20.9 0.00 0.00 0.00 70 1009.0
20260506124523 14 259 3.2 25.7 0.00 0.00 0.00 69 1009.1
20260506123022 15 36 4.8 19.3 0.00 0.00 0.00 67 1008.9
20260506121519 15 61 8.0 19.3 0.00 0.00 0.00 66 1008.9
20260506120019 15 270 4.8 20.9 0.00 0.00 0.00 66 1008.9
20260506114518 15 87 8.0 19.3 0.00 0.00 0.00 66 1008.9
20260506113018 15 96 9.7 20.9 0.00 0.00 0.00 67 1008.8
20260506111517 14 81 6.4 24.1 0.00 0.00 0.00 63 1008.8
20260506110015 15 63 8.0 19.3 0.00 0.00 0.00 66 1008.8
20260506104515 14 21 9.7 30.6 0.00 0.00 0.00 67 1008.8
20260506103015 15 58 9.7 27.4 0.00 0.00 0.00 67 1008.8
20260506101511 15 63 4.8 22.5 0.00 0.00 0.00 69 1008.8
20260506100009 14 74 9.7 22.5 0.00 0.00 0.00 69 1008.7
20260506094506 13 59 4.8 25.7 0.00 0.00 0.00 72 1008.7
20260506093005 13 86 4.8 22.5 0.00 0.00 0.00 76 1008.6
20260506091502 12 65 3.2 19.3 0.00 0.00 0.00 77 1008.7
20260506090001 12 113 8.0 22.5 0.00 0.00 0.00 76 1008.6
20260506084501 12 63 8.0 20.9 0.00 0.00 0.00 75 1008.6
20260506083105 12 66 8.0 25.7 0.00 0.00 0.00 73 1008.5
20260506081559 13 41 6.4 19.3 0.00 0.00 0.00 73 1008.5
20260506073056 13 96 12.9 22.5 0.00 0.00 0.00 75 1008.3
20260506071553 13 55 12.9 25.7 0.00 0.00 0.00 76 1008.3
20260506061537 10 56 8.0 22.5 0.00 0.00 0.00 83 1008.1
20260506044524 10 34 3.2 11.3 0.00 0.00 0.00 83 1008.1
20260506043018 10 59 4.8 14.5 0.00 0.00 0.00 82 1008.0
20260506041518 10 34 6.4 16.1 0.00 0.00 0.00 82 1008.1
20260506040037 10 76 4.8 17.7 0.00 0.00 0.00 81 1008.1
20260506034513 10 135 8.0 16.1 0.00 0.00 0.00 81 1008.1
20260506033013 10 92 4.8 19.3 0.00 0.00 0.00 82 1008.2
20260506031526 10 44 4.8 16.1 0.00 0.00 0.00 83 1008.3
20260506030010 10 94 6.4 17.7 0.00 0.00 0.00 83 1008.4
20260506024517 10 49 3.2 12.9 0.00 0.00 0.00 83 1008.4
20260506023010 10 102 1.6 19.3 0.00 0.00 0.00 82 1008.5
20260506021510 10 59 1.6 12.9 0.00 0.00 0.00 82 1008.5
20260506020007 10 341 6.4 16.1 0.00 0.00 0.00 82 1008.5
20260506014506 10 31 3.2 17.7 0.00 0.00 0.00 82 1008.7